Погода в Зеленчукской

Россия / Карачаево-Черкесская Республика     43°51′39″N   41°34′58″E
темп.,
°C
ветер,
м/с
пор.,
м/с
влажн.,
%
обл.,
%
осадки,
мм/ч
давл.,
гПа
погр.,
м
16 мая, вс
вс1600:00+10ююз32813 0.0 101435
03:00+10ююз337133 0.0 101340
06:00+12ююз33645 0.0 101244
09:00+21ссв11406 0.0 1009561
12:00+23ссв333824 0.0 10071313
15:00+23ссв324632 0.0 10061250
18:00+19всв12791 1.3 1006115
21:00+12ююз4477100 1.3 100854
17 мая, пн
пн1700:00+12ююз4665100 0.0 100774
03:00+12ююз46615 0.0 100775
06:00+13ююз4459100 0.0 100765
09:00+20с2145100 0.0 1006495
12:00+22ссв324899 0.0 10061009
15:00+17ссв3489100 1.7 1008497
18:00+13всв1296100 4.3 1009130
21:00+12ю119696 9.9 101147
18 мая, вт
вт1800:00+11юз1195100 4.1 101034
03:00+10юз1195100 7.9 101051
06:00+10всв1195100 1.3 1012118
09:00+10ссв2296100 3.5 1012258
12:00+13с1177100 0.6 1011572
15:00+15с227622 3.0 1011827
18:00+13ссв229030 2.9 1012302
21:00+9ююз219351 3.5 101421
19 мая, ср
ср1900:00+6ююз328325 0.0 101542
03:00+7ю3378100 0.0 101448
06:00+9юз237567 0.0 101484
09:00+15юв14545 0.1 10141046
12:00+19юз264015 0.0 10132217
15:00+19сз153720 0.1 10132127
18:00+12св348928 0.9 1017373
21:00+10св019775 1.2 1019101
20 мая, чт
чт2000:00+7ююз118132 0.1 101925
03:00+5ююз22729 0.1 101921
06:00+8ю22630 0.0 101725
09:00+16ссв21422 0.0 1014391
12:00+22ссв34360 0.0 10111043
15:00+22ссв32442 0.0 1011705
18:00+19ссв23690 0.0 1011208
21:00+14ю32661 0.0 101236